RH
14 14 14 15 15 16 17 19 20 21 23 24 24 23 21 18 16 13 9 6 4 4 3 3 3 2 2 2 3 3 3 3 2 3 4 6 7 12 24 36 48 57 63 62 56 46 34 29 28 30 34 35 35 37 43 58 69 70 76 79 71 61 56 68 76 73 79 92 98 99 101 97 97 96 89 85 72 64 71 57 35 26 19 12 10 10 12 10
16 16 15 15 15 15 16 17 18 18 20 22 23 25 24 23 20 17 14 11 7 4 4 3 3 3 3 2 3 3 3 3 3 3 3 4 6 9 18 33 48 58 64 64 58 48 39 31 24 28 35 38 37 40 52 63 68 72 78 80 72 61 60 74 79 73 78 90 97 99 99 93 92 95 92 91 82 73 74 67 48 30 22 15 11 11 13 10
18 18 17 17 16 16 16 16 16 17 18 19 21 23 24 25 24 22 19 15 12 8 4 4 4 3 3 3 3 3 3 3 3 3 3 3 5 7 14 33 47 56 63 65 61 52 44 34 22 25 34 41 42 47 59 59 56 64 75 79 74 65 66 76 79 74 74 84 94 97 96 90 88 91 93 90 82 74 67 68 58 32 23 18 13 11 10 11
18 19 19 18 18 18 17 17 16 17 17 18 19 20 21 24 25 25 23 20 17 12 8 5 4 4 3 3 3 3 3 4 3 3 4 3 4 7 15 34 46 55 65 66 64 57 50 40 28 28 35 43 48 55 64 62 58 61 72 80 74 67 68 77 83 77 74 80 85 88 87 83 87 90 88 81 72 69 59 59 54 28 21 21 15 11 8 10
18 19 19 19 19 19 19 18 18 17 17 17 18 19 19 21 23 25 26 25 21 17 13 8 5 4 4 4 3 3 3 4 4 4 5 3 4 9 18 36 47 55 66 69 68 63 57 49 39 39 43 48 56 61 63 71 71 61 65 79 79 69 67 78 87 82 76 78 80 82 81 76 87 92 88 79 64 66 65 64 56 27 19 22 15 13 9 8
18 19 19 19 20 20 20 19 19 19 18 18 17 18 19 19 20 22 24 26 26 22 18 13 9 5 4 5 3 3 3 4 4 4 5 5 5 12 24 40 47 56 68 74 75 70 65 59 53 57 58 57 66 65 59 70 72 57 57 72 82 75 67 74 84 85 79 78 81 84 83 77 83 87 92 87 62 59 64 66 66 37 20 20 14 13 10 8
19 19 20 20 20 20 20 19 19 19 19 18 18 17 18 18 19 20 22 24 27 27 24 18 13 8 5 5 4 4 3 3 4 4 6 7 10 18 32 44 48 56 69 77 81 78 73 71 70 72 69 66 71 64 54 64 68 58 55 61 77 80 68 69 76 81 84 84 84 85 86 82 80 81 88 82 60 59 60 61 66 44 25 21 15 13 10 9
20 20 20 21 20 20 20 19 19 19 18 18 18 18 17 17 17 18 19 21 24 27 28 24 18 13 8 6 5 5 4 3 4 4 5 8 15 25 38 47 49 55 66 77 86 84 82 86 85 80 73 69 71 61 48 58 64 59 56 58 75 83 68 65 65 65 80 91 88 86 87 84 82 81 81 74 62 66 64 62 61 42 28 24 18 14 11 11
21 22 22 22 21 21 20 19 19 18 18 18 17 17 17 16 15 16 17 19 21 24 28 28 24 18 13 9 6 5 5 4 4 4 4 6 15 28 42 48 49 53 59 70 81 83 88 95 96 90 80 70 68 64 55 57 59 55 59 60 70 82 71 64 60 55 72 89 90 90 89 85 84 83 84 78 74 74 72 74 64 39 30 27 21 16 13 12
23 24 24 24 22 21 20 19 18 17 17 16 16 16 16 15 15 14 14 15 18 21 24 27 28 25 18 12 8 6 6 5 4 4 4 5 10 24 40 48 49 50 52 60 74 86 95 99 99 93 82 73 70 73 70 63 55 51 63 66 65 77 73 65 60 52 60 74 80 88 92 89 84 84 86 80 80 80 79 87 70 40 33 30 23 20 16 13
26 25 25 24 22 20 19 17 16 15 15 14 14 14 14 14 14 13 12 13 13 16 20 24 28 29 25 18 12 8 6 6 6 4 4 4 6 13 27 42 49 49 49 54 68 87 97 99 96 88 79 75 75 78 75 69 57 51 67 72 63 71 78 72 62 52 53 57 61 76 92 93 86 86 85 79 85 85 82 94 82 47 36 33 26 22 18 15
28 27 25 23 20 18 16 14 13 12 11 11 11 11 11 11 12 12 11 11 11 12 15 20 25 29 29 25 18 12 7 7 7 5 4 4 5 7 13 27 40 46 49 53 63 80 92 94 91 89 83 72 68 70 73 73 60 53 64 67 62 72 85 84 70 59 59 57 55 67 86 90 89 95 91 84 89 89 80 86 86 58 39 35 29 23 21 21
30 27 24 21 18 15 12 11 9 8 8 8 8 8 9 9 9 10 10 9 9 9 10 14 20 26 30 30 24 16 10 7 8 7 5 4 5 5 7 12 24 35 42 50 57 68 78 82 85 91 87 71 65 67 70 71 58 54 61 59 63 74 83 87 79 69 64 62 56 60 72 77 86 97 93 84 85 90 85 80 81 66 45 37 33 25 23 26
31 27 23 18 14 11 9 7 6 5 5 5 6 6 7 7 7 7 8 7 7 7 7 8 13 21 28 31 29 22 15 10 9 9 7 5 4 5 6 6 11 20 28 37 46 54 60 65 71 80 83 76 73 72 69 65 54 55 61 59 67 77 84 88 85 78 70 65 58 55 61 64 78 96 95 88 86 91 94 87 78 63 48 41 36 31 28 28
31 25 20 15 11 8 6 5 4 4 3 4 4 4 5 5 5 5 5 6 6 6 6 6 7 13 22 28 31 28 22 14 10 9 8 7 5 4 6 5 6 10 16 23 29 40 49 56 60 65 77 81 80 78 71 64 57 53 56 64 71 75 84 85 79 79 73 68 61 53 52 52 69 91 95 95 94 93 96 95 78 57 50 44 37 35 33 28
31 24 17 12 9 6 5 4 3 3 2 2 2 2 3 3 4 4 4 4 4 4 4 4 4 6 13 22 29 30 27 20 12 9 8 8 7 5 5 6 6 6 10 15 19 26 33 44 52 57 74 82 83 85 76 68 64 55 50 58 64 63 73 74 69 74 74 74 68 53 44 47 68 86 91 95 96 94 95 98 88 62 49 45 40 37 35 30
29 21 14 10 7 4 3 2 2 2 2 2 2 1 2 2 2 3 3 3 3 3 2 3 3 3 6 13 23 29 29 25 17 10 9 9 8 7 5 5 6 6 6 10 15 18 20 29 39 50 69 81 85 86 78 70 65 59 50 47 50 51 57 60 62 70 78 83 75 56 42 48 74 87 91 97 94 94 95 97 95 72 51 46 45 41 38 34
26 17 11 7 5 3 2 2 2 2 2 2 2 1 2 1 1 1 2 2 2 2 2 2 2 2 3 7 15 24 29 28 21 14 9 9 10 9 6 5 5 6 6 6 10 16 19 21 27 44 63 73 80 78 72 69 64 65 61 52 52 52 53 57 61 69 83 88 76 59 47 52 81 94 96 101 94 93 97 97 93 75 56 48 45 45 43 40
21 11 7 5 3 2 2 2 2 2 2 2 2 2 2 1 2 1 1 2 2 2 2 2 2 2 2 3 7 16 25 28 25 18 11 10 11 10 9 6 5 5 6 6 7 11 17 20 21 33 43 47 59 66 67 69 67 70 71 64 61 60 62 63 63 71 84 91 81 66 55 58 83 98 100 101 96 95 98 98 91 75 64 55 47 46 46 45
15 7 5 3 3 3 2 2 2 3 2 2 2 2 2 2 2 1 1 1 1 2 2 2 2 2 2 2 3 8 17 24 25 20 14 10 10 11 11 8 6 5 5 6 6 7 12 19 20 24 28 32 44 58 68 71 65 68 73 64 54 56 63 62 64 78 87 92 89 75 64 65 79 94 100 98 94 95 95 97 94 81 73 64 54 48 47 45
10 5 4 3 3 3 3 3 3 3 2 2 2 2 2 3 2 2 2 1 2 2 2 2 2 2 2 2 2 4 10 18 23 22 17 12 10 11 12 10 8 5 5 6 7 7 7 13 20 25 31 37 44 55 66 69 63 65 71 62 44 43 57 61 69 89 90 88 92 84 71 67 76 89 98 99 96 95 95 96 92 80 73 68 59 52 49 46
6 4 3 3 3 3 3 3 3 3 3 2 2 3 3 2 2 2 1 1 2 2 2 2 2 2 2 1 2 2 4 11 18 22 20 14 10 11 13 11 9 7 6 5 5 7 6 7 16 25 32 38 43 52 61 63 61 62 65 66 52 41 52 60 67 86 88 83 88 87 78 69 71 81 92 98 96 94 95 92 88 80 75 74 67 56 53 53
5 4 3 4 4 4 4 3 4 3 2 3 4 5 4 3 3 2 2 2 2 2 3 2 2 3 3 2 2 2 2 4 11 19 21 17 11 11 13 13 12 10 8 7 5 6 6 6 10 18 26 30 33 43 54 57 57 56 59 69 62 49 54 61 67 81 84 83 86 87 85 75 69 78 86 93 94 93 95 90 89 90 86 86 77 60 56 60
4 5 4 5 4 4 4 3 4 3 3 5 6 7 5 4 3 3 3 2 2 2 1 2 2 4 4 3 1 2 2 2 5 13 18 16 12 10 13 14 15 14 10 8 5 5 6 7 8 11 17 23 26 33 44 49 48 49 57 65 60 51 55 66 79 90 86 87 91 89 88 79 70 77 86 94 98 97 97 91 92 99 96 92 82 63 54 58
5 5 5 5 4 5 4 4 4 3 4 7 9 10 8 6 5 4 3 3 8 10 6 4 2 3 5 4 2 2 2 2 2 7 12 13 12 11 11 14 16 16 14 11 7 6 6 7 8 8 10 16 22 28 35 40 41 45 54 62 61 54 60 73 81 83 83 90 97 91 88 81 72 77 85 94 100 99 97 94 96 99 96 93 85 69 57 54
6 5 5 6 5 5 5 4 5 3 5 9 11 13 12 6 2 4 8 18 33 30 14 5 4 6 4 4 5 2 2 6 4 4 9 11 12 11 11 14 19 20 18 15 11 8 6 8 8 7 8 9 14 22 28 34 38 43 51 62 66 62 70 81 78 78 87 95 99 93 88 84 76 76 85 94 99 100 98 97 98 96 94 94 90 78 66 60
6 5 6 6 5 6 5 4 5 4 6 10 14 18 17 10 13 25 31 42 56 46 26 17 19 18 9 5 6 3 7 12 9 8 9 9 10 11 11 13 21 27 25 18 14 11 8 7 7 7 9 7 8 14 20 29 35 44 58 66 69 70 73 80 81 87 92 92 97 94 87 84 76 71 78 87 92 97 99 98 98 97 96 95 91 82 74 68
6 6 6 6 7 7 6 5 5 5 7 11 19 25 22 19 29 47 55 57 57 49 44 39 33 29 22 15 7 5 11 12 13 17 13 10 10 10 13 16 21 27 26 20 15 13 11 8 7 7 7 7 7 8 14 22 29 47 70 73 71 72 73 80 90 91 83 84 96 96 87 84 77 69 71 78 83 87 94 98 98 98 96 95 91 83 79 75
6 6 5 6 7 6 7 6 4 8 8 12 27 33 29 30 33 42 56 62 54 49 54 51 42 33 23 15 8 10 14 12 19 26 18 16 13 10 16 19 22 27 25 20 16 14 13 10 8 8 7 7 8 8 10 14 25 54 80 82 74 67 72 89 98 94 83 81 92 92 86 83 77 75 72 73 78 78 82 91 98 100 96 98 96 89 90 84
6 6 5 6 7 7 8 6 5 11 11 18 39 44 38 45 50 47 51 59 58 52 49 48 44 31 19 17 18 23 24 18 22 23 20 26 20 15 24 26 27 29 24 21 19 16 14 12 10 9 7 7 8 11 9 7 25 62 86 93 83 69 80 93 89 91 90 82 86 87 82 79 76 80 77 73 77 79 82 89 96 100 98 100 99 92 96 92
7 6 5 6 6 7 8 6 7 14 17 29 49 52 46 53 60 53 46 53 62 63 59 52 40 26 26 39 50 55 49 34 31 27 26 40 36 26 32 32 31 31 25 24 23 18 15 13 10 9 8 8 8 11 10 7 23 61 88 98 95 84 88 92 85 89 89 80 83 82 76 75 73 77 77 72 75 78 84 89 90 96 99 100 98 92 96 96
8 6 5 6 6 7 9 7 8 16 26 38 48 52 54 56 56 51 47 55 63 67 72 63 43 35 46 65 78 78 66 57 58 53 51 56 49 39 39 36 35 35 32 29 25 24 23 17 13 13 10 8 8 9 11 10 19 56 90 98 99 92 81 85 95 94 84 78 80 76 73 72 68 74 75 69 69 72 77 82 83 87 90 93 97 95 96 96
9 7 6 6 6 8 9 8 10 19 32 43 46 49 54 56 54 54 57 60 57 59 71 63 47 56 77 87 84 72 70 81 82 73 74 71 55 48 48 47 46 43 40 40 36 36 39 34 27 24 17 9 9 9 9 10 15 47 85 95 97 94 76 76 91 88 79 79 80 77 74 67 63 71 72 64 64 67 70 75 76 76 77 79 84 90 95 93
9 8 6 7 7 7 10 10 13 24 35 39 40 41 48 54 53 54 56 53 49 51 61 56 39 53 81 84 79 80 85 92 81 68 76 78 68 65 66 71 72 58 54 62 59 56 58 53 39 28 25 17 9 9 10 9 11 30 62 78 86 91 81 74 79 75 70 79 89 85 74 65 62 67 66 62 61 62 64 67 69 70 69 69 71 79 90 91
9 9 8 8 7 8 11 12 16 24 30 36 40 37 43 51 44 42 43 43 54 57 60 65 49 51 73 69 72 91 88 85 82 72 74 78 79 87 90 96 94 76 73 81 80 76 72 65 51 37 34 28 15 13 11 7 13 24 37 55 71 82 80 76 81 78 68 80 95 83 67 65 66 65 65 62 58 59 61 61 63 65 66 66 64 68 81 88
8 11 10 8 10 10 11 17 21 21 23 37 48 36 36 43 30 28 34 36 57 67 67 79 66 57 71 67 74 89 79 84 95 83 79 80 79 88 96 103 100 86 86 90 89 87 78 73 72 59 44 34 24 23 18 13 25 32 33 49 65 74 76 75 83 84 72 81 94 81 68 67 63 64 69 66 63 65 65 59 58 63 67 66 63 64 74 82
8 13 11 9 13 10 12 23 22 18 20 28 38 31 29 35 22 23 37 42 57 69 75 83 69 62 72 74 87 91 75 86 96 84 86 89 85 90 94 97 95 87 85 86 87 87 80 79 81 71 58 46 35 35 35 36 40 35 39 59 68 68 70 64 67 71 62 68 84 83 75 66 61 65 67 66 71 75 72 62 54 60 68 67 63 63 68 72
10 14 11 11 15 10 14 24 16 17 25 16 20 28 29 33 29 30 46 59 64 69 82 87 72 69 76 78 91 86 72 84 94 89 90 90 93 96 90 84 86 88 82 78 81 78 77 85 83 77 75 63 48 44 45 49 47 37 44 66 74 71 68 58 58 63 52 46 61 75 76 67 63 67 64 63 70 72 69 62 54 57 66 67 62 61 60 62
11 14 11 12 15 9 13 23 15 17 23 9 7 19 23 30 39 42 53 70 71 64 78 89 77 72 75 77 77 64 63 83 88 87 90 92 94 89 80 76 80 90 83 73 79 75 73 88 90 83 80 70 60 53 47 47 46 41 45 59 71 77 75 65 65 69 57 42 42 55 71 71 58 55 56 57 59 61 60 57 54 54 59 62 61 59 55 53
11 13 13 11 12 8 12 21 19 12 12 6 4 9 15 24 35 45 56 70 70 59 68 80 75 70 73 76 66 50 63 80 75 77 85 89 91 81 73 69 70 87 87 74 78 75 71 86 89 81 80 77 69 60 58 57 47 43 48 55 63 72 74 70 70 72 66 57 48 42 55 62 49 45 50 50 52 57 60 57 53 53 57 58 58 58 55 51
11 12 12 11 9 9 10 15 16 10 5 7 5 5 11 15 21 38 55 66 69 66 67 68 71 81 82 79 69 58 70 73 63 76 88 88 94 89 77 64 62 78 83 74 80 81 79 89 91 86 89 92 80 67 76 81 59 45 54 63 67 68 70 70 73 77 70 68 65 48 43 48 40 40 46 47 47 47 55 63 57 51 54 56 58 59 54 49
11 11 11 9 9 9 10 11 11 9 6 7 7 6 7 8 12 24 38 54 68 78 80 68 70 86 87 78 72 69 76 71 60 77 92 91 96 98 88 71 61 69 74 74 84 93 94 96 97 92 87 92 85 70 84 97 72 50 54 68 76 75 74 72 75 82 76 72 75 64 54 49 38 33 35 38 43 41 50 69 68 55 50 48 50 54 48 44
10 11 11 9 9 9 10 11 10 9 8 8 8 9 7 5 9 13 18 30 49 73 90 80 70 78 82 81 79 73 77 79 68 72 82 81 84 92 92 79 65 65 72 77 88 98 100 97 99 93 80 84 83 70 85 101 83 64 63 68 75 77 79 79 80 85 82 77 78 73 65 56 44 40 36 38 51 51 45 54 63 64 57 42 36 39 38 36
9 12 14 12 10 9 10 12 12 10 10 10 10 9 8 6 6 7 10 16 26 46 72 78 69 68 73 81 84 75 73 79 74 68 71 74 74 80 89 85 72 65 67 79 90 95 98 96 97 95 86 86 84 74 85 98 89 80 76 71 74 77 79 84 87 87 84 81 79 76 72 64 58 56 49 50 63 63 58 63 68 69 62 44 30 29 31 30
11 12 15 12 11 12 11 12 14 13 11 11 10 9 9 8 8 6 6 11 16 22 38 54 57 58 63 75 86 82 72 74 73 63 61 65 64 70 83 86 77 66 63 79 91 91 95 95 91 94 96 93 87 76 80 93 93 90 87 83 86 84 78 82 89 87 84 83 79 78 77 72 69 67 63 65 65 60 70 89 86 72 64 55 43 36 36 34
12 13 15 12 11 14 13 12 14 16 15 13 10 9 10 9 9 9 6 7 10 10 15 26 36 47 59 72 83 83 73 72 72 64 62 67 62 58 67 73 72 64 58 73 89 91 97 99 88 88 95 91 83 75 74 86 93 94 92 92 97 94 80 77 83 81 79 81 79 78 77 72 70 71 71 73 69 59 68 88 90 78 68 64 58 48 42 39
14 15 16 12 11 13 12 12 14 15 17 16 12 10 11 10 9 10 9 7 7 6 8 12 20 37 55 66 76 82 76 72 74 76 79 82 72 56 49 53 61 61 55 67 86 89 91 96 92 90 91 84 75 69 68 76 90 96 96 96 98 96 85 77 79 75 71 76 79 76 76 71 67 70 71 71 70 64 64 72 77 76 68 62 59 54 48 44
16 17 17 12 12 13 12 14 17 15 16 19 17 13 11 10 10 10 10 10 9 8 8 9 11 20 33 48 64 79 81 76 77 84 84 80 75 66 55 48 51 56 60 70 87 91 89 94 98 94 88 79 71 65 59 64 81 92 94 94 93 91 88 83 81 77 72 76 78 75 75 71 66 69 72 70 66 62 63 64 66 70 68 63 60 55 52 49
18 20 18 13 13 15 13 13 15 15 15 18 20 19 16 12 11 12 12 11 11 10 9 9 8 6 11 22 41 66 83 83 78 79 77 72 69 69 69 64 55 55 63 72 83 92 93 95 99 95 87 80 73 67 60 59 72 81 83 88 89 86 87 86 83 77 69 70 76 76 75 71 65 64 70 72 70 65 64 66 69 74 72 66 62 58 55 52
19 22 19 14 13 15 16 13 13 14 16 17 19 20 20 17 14 14 13 12 12 12 11 11 10 8 7 8 17 38 59 72 76 73 73 74 73 71 74 77 69 65 71 76 77 82 89 94 97 92 87 84 79 72 64 58 62 69 73 82 88 84 83 84 83 77 67 64 70 72 70 68 60 54 58 68 72 68 67 69 74 79 75 66 62 59 56 53
21 25 21 14 11 13 14 12 11 12 15 19 20 19 19 19 17 15 14 12 12 12 13 13 12 11 10 6 7 13 24 46 68 74 74 76 76 73 71 69 69 71 77 80 77 77 81 87 91 88 85 86 85 81 73 62 55 56 60 71 82 85 84 83 79 76 70 64 64 64 64 63 54 42 48 65 70 63 62 66 72 77 73 65 60 58 57 56
25 27 23 15 12 12 13 14 14 16 18 19 18 19 20 19 18 18 16 14 13 12 12 13 13 13 12 9 7 5 8 25 45 58 68 74 72 68 65 62 64 68 71 74 78 81 80 77 82 87 88 88 90 88 84 74 63 57 56 59 66 73 80 80 73 69 68 64 59 59 64 66 59 48 55 77 86 76 66 65 70 74 71 64 59 56 57 60
Wind_Speed
20 21 21 22 22 22 22 22 23 24 25 25 26 26 25 25 25 24 24 24 23 22 22 21 22 22 22 21 20 18 17 17 17 18 19 24 28 29 32 30 26 25 24 22 21 20 19 18 17 15 13 13 13 11 10 9 6 4 2 1 2 1 4 6 6 9 6 5 13 20 25 22 20 18 16 15 12 10 11 9 9 8 6 11 15 13 11 12
20 20 21 22 22 22 22 23 23 24 25 25 26 27 27 27 27 26 26 25 25 24 24 23 22 22 23 23 22 20 18 18 19 19 18 22 29 31 32 31 28 26 25 23 23 21 20 20 18 16 15 15 13 11 10 10 7 4 3 1 1 1 4 5 5 10 12 9 13 21 26 22 19 18 16 13 11 11 12 10 9 8 7 10 14 13 11 11
20 20 20 21 22 22 23 23 24 24 24 25 26 27 28 28 29 28 27 27 26 26 25 25 24 24 23 24 23 22 20 19 20 19 18 22 29 31 32 32 29 27 25 24 24 22 21 20 18 17 17 16 14 13 12 12 11 8 4 2 1 2 5 5 5 9 14 17 17 20 21 19 18 17 15 12 10 9 10 9 9 8 9 10 12 13 11 10
20 20 20 21 21 22 23 24 24 25 25 25 25 26 27 29 29 30 29 29 28 28 27 26 26 25 25 24 25 23 21 21 20 19 19 22 28 31 32 32 30 27 26 25 24 22 21 20 18 17 18 17 16 15 14 12 11 11 7 5 2 3 6 6 6 8 13 17 18 17 15 15 16 15 13 12 10 8 7 7 8 9 10 11 12 13 12 10
22 21 21 21 21 22 23 24 25 25 25 26 25 26 27 28 29 30 31 30 29 29 29 28 27 27 26 26 25 25 23 22 21 20 21 22 28 32 33 33 30 28 27 26 25 23 22 20 19 18 19 18 17 17 16 14 11 11 11 7 4 3 4 6 6 7 10 13 14 13 12 13 13 14 13 12 9 8 8 7 6 7 9 11 13 13 12 9
23 22 22 22 21 22 22 23 24 25 26 27 27 27 27 28 29 30 30 31 31 31 31 30 29 28 28 28 27 26 25 24 23 22 22 22 28 32 33 33 30 28 27 26 25 24 23 21 20 20 20 20 19 18 18 16 14 12 11 9 6 4 3 5 7 6 6 9 11 10 10 10 11 12 13 10 8 8 9 9 7 5 7 10 12 13 12 10
24 24 23 22 22 22 22 23 24 25 26 27 27 28 28 28 29 29 30 30 31 32 32 32 31 30 29 29 28 27 26 26 25 24 23 24 28 33 34 33 30 28 28 27 25 24 23 22 21 21 21 21 20 20 20 18 16 14 12 11 9 6 5 5 6 6 5 5 9 10 10 9 10 10 11 10 7 6 7 8 8 6 6 9 10 11 12 11
26 25 24 23 23 22 22 22 23 23 25 26 27 28 29 29 30 30 30 30 31 32 34 34 33 32 31 30 30 29 28 27 27 27 25 26 29 32 34 33 31 30 29 28 27 26 24 23 23 23 23 22 21 21 20 19 18 16 14 13 11 9 8 7 5 5 6 5 6 8 9 9 9 9 11 9 5 6 8 8 8 7 7 8 9 10 11 11
27 26 25 23 23 22 22 22 22 22 23 24 26 27 29 30 30 31 31 30 30 31 34 35 35 34 32 32 31 31 30 28 29 29 28 28 30 33 35 34 32 31 30 29 28 27 25 24 24 24 23 22 21 20 19 21 21 18 16 15 13 11 10 8 7 7 7 7 6 6 7 7 8 9 11 9 6 7 10 9 8 8 8 8 10 9 10 11
28 26 25 23 22 22 22 22 22 22 23 24 25 27 28 30 31 31 31 31 31 32 33 35 35 35 34 34 33 32 32 30 29 30 30 30 32 34 36 35 34 32 31 30 28 27 25 25 26 26 24 23 23 21 21 22 23 20 17 17 15 13 11 10 9 9 8 7 7 7 6 7 8 10 12 12 10 9 9 9 7 7 8 7 9 9 9 11
28 27 25 23 22 22 22 22 22 22 22 23 25 26 28 29 31 32 32 32 32 32 34 35 35 36 36 35 35 34 34 31 30 31 32 32 33 35 36 37 36 34 32 31 29 29 28 28 29 27 26 27 26 24 23 22 22 20 18 18 17 14 12 11 12 11 9 7 7 7 6 8 9 12 15 14 14 13 10 9 7 7 7 7 8 9 9 10
28 27 25 23 22 21 21 21 21 22 22 23 24 25 27 28 30 32 32 32 32 33 34 35 35 36 37 37 38 37 35 33 31 32 33 33 33 34 36 37 37 36 34 32 31 31 31 31 29 27 28 29 28 26 24 23 23 21 19 18 17 15 10 9 11 11 9 8 9 7 7 7 8 12 14 13 15 14 11 10 9 8 7 6 7 8 10 10
27 26 24 23 22 21 20 20 21 21 22 23 23 24 26 27 29 31 32 33 33 33 34 35 36 36 37 39 40 38 36 34 31 31 33 34 34 34 35 37 38 38 37 35 34 34 34 33 31 30 29 28 26 24 24 24 24 22 20 21 19 15 12 10 10 10 9 9 10 10 8 4 6 11 13 14 16 15 13 12 10 8 6 6 7 8 10 10
26 25 23 22 21 20 20 20 20 21 22 23 23 24 25 26 28 30 31 33 33 33 34 34 35 37 38 39 40 39 37 35 32 33 34 34 35 35 35 36 37 38 38 38 37 37 36 35 34 32 30 27 24 24 26 27 25 23 23 22 19 16 14 13 10 8 9 10 10 10 8 5 8 12 14 16 18 16 15 14 12 9 7 6 7 8 10 10
26 23 22 21 21 20 20 20 20 21 21 22 23 24 25 26 28 29 30 32 33 33 34 35 35 37 39 40 40 40 39 36 35 37 37 35 36 37 36 36 36 37 38 38 38 39 38 37 35 33 31 28 25 26 28 26 24 23 21 19 18 16 14 13 11 9 10 10 10 10 9 8 9 12 15 17 19 18 17 17 14 10 8 7 7 8 9 9
25 23 21 20 20 20 20 20 20 20 20 20 21 22 24 25 27 29 30 31 33 33 33 34 35 36 39 41 41 41 41 39 37 38 38 37 36 37 38 37 36 37 38 38 39 40 40 39 36 34 32 29 28 28 26 23 22 21 21 19 18 16 15 14 13 11 9 9 11 11 11 10 9 11 16 20 21 20 20 21 18 12 10 9 8 8 8 8
25 22 21 20 20 20 19 19 19 19 18 18 19 20 21 23 26 28 30 31 31 33 32 33 35 36 39 41 41 42 43 42 39 39 40 39 37 37 38 38 37 37 38 40 40 39 39 38 37 36 34 31 30 29 27 25 22 20 21 21 18 18 16 15 14 11 8 9 11 12 12 11 10 12 19 21 22 21 21 24 21 14 11 10 10 9 8 8
24 22 21 20 20 20 19 18 18 18 18 18 18 19 19 20 23 26 29 31 31 31 31 32 34 36 38 40 41 43 44 44 42 41 42 41 39 38 38 38 38 38 38 39 40 39 38 37 37 37 36 34 33 31 28 24 20 16 17 18 17 17 15 15 16 12 7 8 11 12 12 11 9 11 22 25 24 23 22 23 20 14 12 10 10 10 9 9
22 20 20 20 20 20 19 18 18 19 19 20 20 20 20 19 21 23 26 29 30 30 30 30 33 35 38 39 41 43 44 45 43 42 43 43 41 39 39 39 40 40 39 38 38 39 39 37 37 36 34 33 33 31 26 22 19 16 16 20 19 17 16 17 16 10 7 9 11 11 10 9 6 7 23 27 24 24 23 22 20 15 12 10 10 11 10 10
21 19 19 19 19 19 19 19 20 20 21 21 21 21 21 19 19 21 23 25 27 27 27 29 31 34 37 39 40 43 44 45 44 43 44 44 43 41 40 40 40 40 39 37 37 38 38 38 36 33 31 31 31 30 27 24 22 20 22 26 25 23 20 18 15 9 9 11 11 11 10 9 5 4 18 26 24 25 25 23 21 17 13 11 11 11 10 10
19 18 18 19 19 19 19 20 21 22 22 22 22 22 22 19 17 18 20 22 24 24 25 27 29 31 35 38 40 42 44 46 45 44 45 45 44 43 42 41 40 40 39 38 37 37 38 38 35 32 31 31 30 30 29 27 25 24 24 25 27 28 23 20 17 10 10 13 12 12 11 10 8 5 12 22 24 25 25 24 22 19 15 14 14 12 10 9
17 17 17 18 18 19 20 21 23 23 23 23 23 22 21 19 15 14 16 19 20 20 20 23 26 28 31 35 38 40 43 45 46 45 46 45 44 44 43 42 41 39 38 39 39 38 38 36 35 36 36 35 33 32 31 30 28 27 25 24 25 27 25 23 20 14 12 14 12 12 12 11 11 8 9 18 24 24 25 25 22 21 18 16 16 13 11 9
16 16 17 17 19 20 22 23 24 23 22 22 22 21 19 16 14 12 12 14 16 16 15 18 22 24 27 32 37 39 40 43 46 46 45 45 45 44 44 43 41 40 38 39 39 39 36 34 36 39 40 38 35 34 33 32 32 29 26 27 26 24 24 21 18 15 14 13 12 13 12 11 12 10 10 16 24 26 27 26 22 22 21 19 18 16 13 11
15 15 16 17 19 21 23 23 24 24 23 21 20 19 17 15 14 12 9 10 10 10 11 14 18 20 23 30 34 36 38 40 43 45 45 45 44 44 45 44 42 41 39 39 39 38 35 33 36 39 39 38 36 35 34 34 33 29 28 30 28 23 21 17 15 15 14 12 11 13 12 12 12 11 10 15 25 29 28 26 24 23 23 22 20 17 15 14
14 14 15 17 20 22 23 23 23 24 23 21 18 17 16 15 12 8 5 5 5 5 6 9 13 15 19 26 30 34 37 37 40 44 45 45 44 44 45 45 43 42 40 39 39 38 35 35 37 37 38 38 38 37 35 34 32 30 30 30 28 24 21 19 17 15 13 10 9 12 14 13 13 12 9 13 23 29 28 27 26 26 25 23 21 17 15 15
13 13 14 17 19 22 23 23 23 22 20 17 15 13 14 13 7 4 2 3 7 5 1 5 8 11 16 22 26 32 32 31 35 40 42 44 44 43 44 44 43 41 40 39 39 37 36 36 38 37 37 38 38 38 36 35 33 31 31 29 27 25 23 21 18 13 11 11 9 12 15 15 15 14 11 11 17 24 29 30 29 27 24 22 22 19 15 15
13 12 14 17 19 22 23 22 22 21 18 15 13 11 12 10 6 5 5 6 8 8 5 3 4 5 10 14 18 24 24 26 30 32 36 41 41 42 43 43 43 41 39 40 39 37 36 37 38 39 38 38 38 38 36 36 34 32 30 28 26 25 23 21 17 13 14 13 12 15 16 16 16 16 13 11 12 16 24 30 30 26 24 24 24 20 17 16
13 12 13 16 19 21 23 22 22 21 18 14 12 11 9 6 4 7 6 6 7 8 9 6 3 2 4 7 11 18 21 26 28 25 29 36 38 40 40 41 43 42 41 43 41 38 35 35 37 38 39 39 37 36 36 37 34 32 30 28 27 27 26 20 16 16 16 15 15 15 16 16 17 17 14 12 11 11 15 23 26 25 25 26 25 21 20 19
12 11 13 16 19 21 22 22 22 21 17 12 11 11 7 3 5 5 4 5 6 6 6 4 4 4 5 7 11 17 20 25 28 25 25 30 35 38 37 38 42 43 44 44 41 39 36 35 34 36 39 38 35 34 36 38 36 34 33 30 30 31 29 22 17 19 19 18 18 16 16 17 16 15 13 11 12 10 10 13 18 23 27 27 26 24 24 23
12 11 13 16 19 22 23 22 22 21 16 11 11 9 5 4 5 3 3 5 5 4 4 4 6 4 5 8 13 17 18 23 26 27 27 27 31 35 35 36 38 41 44 42 39 39 38 36 35 35 37 37 35 33 36 38 38 38 37 33 33 32 29 24 21 22 23 23 22 19 18 18 17 15 13 11 10 9 10 10 10 18 25 26 25 25 25 24
12 12 13 16 18 21 23 22 22 21 16 10 7 5 4 4 3 1 2 5 4 5 6 8 9 7 6 11 14 14 14 18 21 25 26 26 29 32 32 34 35 37 41 40 37 36 37 39 38 35 35 36 36 35 35 37 40 43 42 38 36 34 32 28 22 23 25 24 25 23 20 19 19 17 14 14 12 9 9 9 7 10 17 20 21 22 22 23
12 12 13 15 17 20 21 20 20 18 14 10 6 5 4 3 2 1 2 3 5 6 8 10 11 10 11 14 14 13 12 12 14 19 20 20 26 31 32 32 32 34 36 35 33 32 33 37 37 34 33 36 38 37 36 37 42 47 46 41 37 35 37 33 23 23 24 23 26 25 19 19 20 18 17 17 16 11 9 9 8 8 12 15 16 19 21 23
12 12 12 14 16 19 20 19 19 16 11 9 9 7 4 3 3 1 2 2 3 4 8 9 10 14 16 14 13 14 13 11 9 11 14 17 22 28 31 30 30 32 32 30 30 30 29 31 33 33 32 34 37 39 39 38 43 49 48 43 39 36 39 36 28 26 23 19 22 22 18 20 21 20 20 18 17 14 11 10 10 9 11 11 11 13 18 22
12 12 12 13 15 17 19 19 17 15 11 10 9 7 4 3 3 2 3 2 1 4 9 10 12 19 18 14 15 13 10 11 8 6 10 16 21 25 27 27 27 31 32 32 31 30 28 27 30 33 31 31 35 37 40 39 41 47 49 47 43 39 39 38 33 31 24 17 20 21 20 23 23 22 22 19 19 17 13 12 11 10 10 10 9 9 13 19
11 12 11 13 14 16 19 18 15 13 12 11 9 7 4 3 3 3 4 3 3 2 8 10 14 21 18 16 19 14 11 13 10 7 10 15 21 24 26 26 28 31 34 35 33 32 31 28 28 31 30 30 33 35 40 40 39 45 50 49 45 40 40 39 37 33 25 19 23 24 24 25 24 23 23 21 21 18 14 13 12 11 11 11 11 10 10 15
11 11 11 12 13 15 18 17 15 13 13 11 8 7 4 4 4 4 3 2 3 3 8 12 17 20 18 19 21 16 14 15 13 12 13 15 19 23 27 29 31 33 37 38 35 34 33 29 26 29 30 32 33 34 38 40 40 44 48 49 46 41 38 38 38 35 28 24 26 27 27 27 25 24 23 21 19 16 15 14 13 12 13 12 12 13 13 14
11 11 10 10 11 14 16 15 14 12 13 10 7 5 6 6 6 5 4 3 2 5 11 16 18 17 20 24 22 17 17 20 21 19 18 19 22 26 30 31 33 35 38 40 37 36 34 30 29 30 30 32 32 33 36 38 40 43 46 46 44 40 38 37 36 36 36 34 32 30 29 28 27 25 24 21 18 16 16 16 15 14 14 14 13 14 16 18
10 10 10 8 8 11 13 12 11 11 11 9 6 5 7 8 8 8 7 5 1 9 12 15 16 14 19 24 21 19 21 23 26 25 23 23 24 28 31 31 34 35 37 39 37 36 34 30 32 32 29 27 27 29 34 37 37 40 44 44 41 37 37 37 34 32 36 41 40 34 31 31 30 28 26 23 21 21 20 18 16 14 15 16 16 16 18 22
9 10 10 7 6 9 10 10 11 9 8 10 9 7 8 10 10 9 8 8 3 9 10 12 15 14 17 23 22 21 20 22 26 26 26 26 25 27 30 32 35 34 36 38 34 34 36 31 32 33 28 24 24 27 34 37 35 37 42 44 41 37 34 35 33 30 32 39 42 40 37 35 33 32 31 29 27 25 23 19 15 15 17 18 18 19 21 23
8 8 8 7 6 8 9 9 10 8 7 11 11 9 9 11 11 10 9 9 6 4 7 8 13 15 18 23 24 23 20 20 25 24 24 25 24 25 29 32 36 34 35 37 33 32 36 34 32 32 27 24 24 28 34 36 34 36 41 44 43 40 35 34 34 32 31 33 36 39 40 39 38 36 35 33 30 25 21 17 16 17 18 19 20 22 22 22
9 8 6 6 7 8 9 10 10 8 7 10 12 12 12 10 10 11 9 7 6 3 4 7 7 11 19 25 25 23 20 22 26 23 22 25 23 24 28 32 36 35 34 35 33 33 36 34 32 33 30 26 27 30 34 34 34 38 43 44 43 40 38 36 36 35 33 32 32 34 36 37 39 39 38 37 33 26 21 20 21 21 21 20 20 21 21 19
8 8 6 5 6 8 9 11 10 9 9 10 12 13 11 10 8 9 9 7 7 8 2 6 5 6 17 26 26 21 19 24 26 21 21 26 23 22 27 31 33 35 34 34 34 36 36 33 31 34 35 31 30 35 39 37 37 41 44 44 41 38 38 38 38 37 36 35 32 31 33 34 36 37 38 37 33 26 23 23 22 22 23 23 22 21 20 18
8 8 7 5 6 6 7 10 10 9 11 11 11 9 8 9 8 7 7 8 7 7 3 4 5 3 9 22 26 21 19 24 27 20 17 22 24 22 24 29 32 33 34 35 35 36 35 32 31 34 36 34 32 38 44 41 40 43 45 46 43 39 39 40 40 38 38 37 34 32 33 34 34 34 34 33 28 24 24 25 24 25 27 28 27 25 23 20
8 9 7 6 6 6 6 8 10 11 12 11 8 7 7 9 9 7 7 7 6 6 4 0 3 2 2 11 22 23 21 22 27 24 16 15 23 24 24 28 31 32 35 36 35 35 34 32 32 34 35 35 33 38 44 44 42 43 44 46 45 43 41 41 41 40 39 39 37 34 33 33 31 31 31 29 25 22 24 26 25 24 24 26 28 26 25 24
7 8 8 7 6 6 6 7 9 10 11 10 7 6 6 7 7 8 8 6 6 5 4 4 1 0 1 4 14 22 24 22 23 26 20 15 20 24 24 28 31 32 35 36 36 36 34 33 34 35 34 35 36 39 44 46 45 43 44 45 45 45 44 42 42 42 41 40 39 36 34 33 31 29 29 27 24 22 23 25 24 22 21 21 22 23 24 24
7 6 8 7 5 6 6 5 7 9 9 9 8 6 5 5 6 7 7 6 6 6 5 5 4 3 3 4 10 16 22 21 20 24 22 17 21 25 24 25 30 31 33 35 36 36 34 33 36 37 34 34 37 40 44 47 46 43 44 46 44 43 45 45 44 44 43 42 40 38 37 35 33 31 28 26 25 23 23 25 25 25 25 23 21 21 22 23
8 6 7 6 4 5 6 5 5 7 8 9 9 9 7 6 4 4 5 6 7 7 7 5 3 3 3 3 7 12 17 17 17 21 17 12 18 25 24 22 26 29 32 35 37 38 36 34 36 39 37 34 36 39 43 46 47 45 44 45 43 41 44 47 46 45 46 45 42 42 41 37 35 33 31 29 28 27 26 27 27 26 25 26 25 23 22 23
8 6 6 6 4 5 5 4 5 6 8 8 9 10 9 7 5 4 5 6 6 7 9 7 3 2 1 1 3 7 14 15 14 16 13 10 13 20 23 23 24 28 34 37 38 39 39 37 36 37 37 35 35 38 41 44 47 47 44 44 44 42 42 46 46 46 47 46 43 43 43 39 36 33 31 31 31 31 30 29 27 26 25 25 26 26 25 24
10 8 6 6 6 6 5 4 5 6 7 7 7 7 9 9 8 6 5 5 5 6 7 8 6 4 1 2 2 3 9 14 15 13 11 10 12 14 18 22 24 29 36 40 40 39 38 38 37 37 36 36 36 36 38 43 48 49 46 43 44 43 42 43 45 46 48 47 45 44 43 42 39 35 31 32 33 33 32 30 27 25 23 23 24 25 25 24
10 9 7 7 7 7 6 5 5 5 7 6 6 6 6 8 8 7 6 5 5 5 6 7 7 7 5 1 3 4 5 9 12 13 11 9 8 8 11 17 22 29 37 41 41 41 40 38 38 38 37 37 38 36 36 38 42 46 47 44 43 44 45 45 44 45 47 48 47 46 45 43 43 40 36 34 34 34 32 30 29 27 25 22 22 23 24 24
12 10 9 8 8 7 7 5 4 5 6 6 5 4 5 6 7 7 7 6 6 5 5 6 6 6 7 5 1 3 5 6 8 12 12 10 9 9 10 14 19 25 34 40 41 42 43 42 40 40 39 36 36 36 35 34 35 37 42 46 46 45 45 45 45 45 45 47 49 48 47 45 45 46 40 33 32 35 35 31 29 29 29 26 24 23 23 24
14 12 12 9 8 7 7 5 5 5 6 6 5 3 4 5 6 7 7 7 7 6 5 5 5 5 6 7 6 2 4 8 8 8 10 12 13 13 13 15 17 21 28 36 40 40 42 43 42 41 41 39 36 34 33 32 31 30 33 39 44 47 47 45 46 46 46 47 49 49 48 46 46 46 40 30 26 30 33 33 32 29 28 28 27 24 23 24
Wind_Direction
292 288 286 284 283 281 278 274 270 267 264 262 260 258 256 254 253 251 249 247 246 244 241 239 237 235 235 233 231 227 225 224 221 222 219 214 209 206 206 204 202 204 202 202 204 206 207 207 203 194 191 196 200 197 185 186 214 216 193 346 24 24 36 32 18 21 26 164 182 183 170 162 158 156 156 143 132 123 106 95 97 104 112 108 109 112 122 134
296 291 288 285 282 280 278 275 272 269 265 262 259 257 255 253 251 250 248 246 244 243 242 240 238 236 234 234 231 226 223 222 222 223 221 214 210 207 207 204 203 203 201 202 205 205 206 207 203 193 192 196 199 194 183 189 202 185 163 171 359 44 56 54 52 49 59 107 160 166 157 155 154 153 152 141 134 121 102 93 94 103 113 105 103 103 109 129
301 295 290 286 283 280 277 275 273 271 268 265 261 257 255 252 250 248 247 246 243 241 241 240 238 236 234 233 231 226 221 221 223 222 221 216 210 208 207 204 203 203 201 202 206 205 206 208 204 194 193 195 195 188 183 195 205 195 153 113 166 87 67 65 71 71 74 94 127 145 146 150 151 149 149 146 146 131 114 111 108 113 118 109 103 98 98 118
306 300 294 288 284 280 276 274 272 271 269 266 263 259 256 252 250 248 246 245 243 241 239 238 238 236 234 233 232 228 220 219 222 220 220 216 210 207 205 204 204 203 202 203 205 206 207 209 204 196 194 194 192 187 185 193 205 196 162 113 116 92 65 67 83 88 89 100 118 132 140 147 148 151 154 154 154 145 130 119 121 128 123 117 110 102 99 110
309 304 298 292 286 281 277 274 271 270 268 266 263 261 258 255 251 248 246 243 243 241 238 236 236 236 235 233 231 229 222 218 218 218 218 214 208 206 204 204 204 203 202 203 204 204 204 206 202 197 197 194 192 190 186 187 195 191 169 143 127 110 76 81 96 101 105 115 124 133 141 143 150 155 155 158 156 148 140 126 133 133 122 119 116 111 107 108
312 307 302 296 291 284 279 275 271 269 267 265 263 261 259 257 254 250 247 243 241 241 240 236 233 234 235 233 231 229 223 217 216 216 215 212 207 205 203 203 203 202 203 203 203 203 203 203 200 197 198 196 194 190 186 187 199 196 173 159 156 158 129 106 109 111 113 127 134 145 150 146 155 157 154 164 160 148 145 136 141 135 115 116 118 119 115 110
315 310 305 301 295 290 284 278 273 269 266 264 263 262 260 258 255 252 248 244 241 239 239 237 232 231 232 233 231 230 225 218 215 214 211 209 206 204 203 202 202 202 203 203 202 203 203 202 200 199 198 197 197 195 187 187 200 199 181 168 163 164 162 141 125 119 116 141 148 151 158 157 160 161 163 171 164 160 158 142 145 143 117 112 117 122 119 113
317 313 309 304 299 294 288 282 276 271 268 264 262 261 260 258 256 253 250 245 242 238 238 237 233 230 229 231 231 230 227 219 214 213 208 207 206 204 204 202 202 204 204 203 202 201 202 202 201 201 199 197 200 201 194 189 196 194 182 173 163 166 174 167 161 144 124 144 163 160 165 171 172 172 171 173 175 170 163 150 149 143 126 120 122 124 122 120
319 316 312 307 302 296 290 285 279 274 270 266 262 260 258 257 256 254 251 246 242 238 237 236 233 230 227 229 229 229 228 220 215 214 208 206 206 204 205 203 203 205 205 204 203 201 201 201 202 204 201 198 200 202 200 198 198 191 179 174 169 174 182 180 183 171 143 142 159 175 186 189 189 183 173 174 182 165 154 151 151 143 134 131 131 130 128 125
321 317 313 308 302 297 291 286 281 276 271 266 263 260 257 256 255 254 251 247 243 238 236 235 233 230 228 227 227 228 227 222 216 215 211 207 206 205 205 205 205 206 206 205 203 201 200 201 203 204 200 198 199 198 202 205 203 193 177 173 175 180 191 194 190 181 168 163 163 172 197 208 203 189 179 178 184 178 161 157 157 149 141 136 134 132 125 122
322 319 314 309 303 298 293 288 284 278 273 267 264 261 258 256 255 254 252 248 244 239 236 234 232 230 228 226 226 226 225 222 217 215 213 208 206 206 206 206 206 207 207 205 203 201 200 203 206 206 202 200 197 195 201 208 209 199 179 174 180 184 195 200 194 184 175 189 190 172 189 212 209 196 188 181 183 188 179 172 174 159 144 137 135 131 121 115
323 319 315 310 304 299 295 291 287 281 276 270 266 263 260 257 255 254 253 249 245 240 236 233 231 229 227 226 226 224 223 222 218 216 216 210 207 207 206 207 207 207 207 206 204 202 202 205 207 207 208 205 199 195 198 207 212 205 187 182 186 184 186 194 193 183 175 199 206 189 194 213 222 210 195 182 186 193 191 188 185 169 147 138 141 134 122 115
323 319 315 310 305 302 298 294 290 285 280 275 270 265 262 260 257 254 253 251 246 242 237 232 229 228 226 226 225 223 222 222 218 217 218 214 209 207 207 206 207 207 207 207 205 205 205 205 205 205 210 211 205 198 197 205 209 205 197 192 190 184 181 193 195 179 182 206 213 207 203 208 233 222 204 189 191 198 199 195 188 175 155 145 152 143 129 125
323 319 314 310 307 305 302 298 293 288 284 280 275 270 265 262 259 257 254 252 248 243 239 234 229 226 225 225 225 223 220 220 217 216 216 215 212 209 208 207 207 206 207 208 208 208 208 208 207 205 208 210 206 203 202 205 205 202 202 196 190 186 188 203 205 184 190 211 221 219 209 208 231 225 211 196 191 196 197 192 189 177 160 156 164 153 138 136
323 319 314 311 309 308 305 301 295 290 286 282 278 274 269 265 261 258 255 253 250 245 239 235 230 225 224 223 223 222 220 218 216 216 216 214 213 211 209 208 207 206 206 207 209 210 210 211 210 207 206 204 203 207 207 207 206 203 202 198 193 191 195 209 216 207 208 221 231 232 221 220 236 234 218 204 195 193 190 191 196 182 167 174 174 160 145 143
323 318 315 313 313 312 309 304 298 293 289 284 280 276 272 268 264 260 256 253 251 247 240 235 231 226 223 222 221 220 219 217 214 216 217 214 213 213 211 209 207 206 205 206 207 210 211 211 212 210 206 200 202 208 207 207 209 206 205 202 200 201 204 213 221 224 224 233 241 242 236 231 248 247 222 207 197 189 184 191 197 191 182 182 174 164 154 152
323 319 318 318 318 317 313 307 302 298 294 290 285 280 275 271 267 263 259 254 251 249 243 236 231 227 223 221 219 218 217 216 213 213 217 215 213 213 213 211 209 207 206 206 207 209 210 210 210 211 207 200 202 206 205 205 207 209 212 209 206 208 211 219 225 228 228 239 245 242 240 244 263 249 217 203 196 189 186 190 193 196 196 185 175 168 164 167
322 321 320 322 322 320 316 311 308 305 303 300 296 290 283 277 272 265 261 257 251 248 245 238 231 227 225 221 219 218 217 216 213 212 215 215 212 212 213 212 210 209 207 207 207 208 209 209 208 210 207 202 202 205 205 206 205 210 217 215 212 210 209 218 223 223 228 241 246 242 238 248 279 245 207 197 194 191 187 188 193 200 200 189 182 176 173 178
322 321 321 323 323 321 318 316 315 314 312 309 306 301 294 286 278 268 262 258 254 249 245 239 232 227 224 221 219 217 217 217 215 212 214 215 212 210 211 212 211 210 209 207 207 208 208 209 208 208 208 206 205 205 204 204 201 201 209 209 205 201 200 208 215 219 235 247 246 243 239 242 283 239 200 193 193 191 186 189 196 200 198 195 192 185 181 185
321 320 321 324 324 323 321 321 322 321 320 316 314 310 304 298 288 275 264 258 255 250 245 241 235 229 225 221 218 217 216 216 215 213 213 214 213 210 211 211 211 211 210 208 208 208 208 209 209 206 206 208 206 202 199 200 198 199 209 207 198 195 194 196 198 202 226 239 244 242 238 232 253 233 198 195 196 191 186 188 195 197 192 194 198 195 190 187
320 320 322 324 325 325 325 327 328 327 325 323 321 317 312 307 298 283 271 261 255 250 244 239 235 230 226 222 218 217 217 216 214 213 212 213 213 211 211 211 212 212 210 209 208 207 208 208 206 204 204 206 205 200 198 198 198 203 212 212 202 194 187 185 187 191 219 228 237 238 233 226 227 226 202 200 199 194 188 188 195 198 192 192 197 197 197 192
319 320 322 325 326 327 329 331 332 332 331 328 325 322 316 310 301 285 273 265 258 252 245 238 233 228 225 223 219 216 218 217 214 213 212 213 212 211 211 211 211 211 210 210 210 207 207 205 202 202 203 203 201 200 199 197 199 205 208 212 209 194 185 187 186 189 211 218 230 235 229 227 222 222 214 203 199 194 192 192 195 195 189 191 197 192 192 194
318 319 324 327 328 330 333 335 335 335 333 330 327 324 319 314 311 299 279 267 262 258 247 235 231 225 220 220 218 216 217 218 215 213 212 213 212 211 212 211 210 210 210 211 211 209 206 202 201 203 204 203 199 198 199 198 199 201 203 211 212 197 190 191 187 194 211 217 227 230 227 229 222 221 230 215 200 193 194 196 194 192 189 191 195 189 183 182
316 320 326 329 330 333 335 337 337 335 335 335 333 331 329 327 318 308 292 273 267 264 251 236 228 222 218 218 217 215 216 216 216 213 211 212 212 210 211 211 209 210 210 211 211 209 205 201 202 205 205 204 201 198 198 200 200 196 199 210 213 204 196 194 197 206 214 217 221 220 220 225 220 218 232 220 202 195 195 195 193 193 193 193 191 186 180 174
314 319 328 332 333 336 337 339 339 338 340 340 340 341 340 331 317 311 307 291 300 294 257 235 225 219 216 217 217 215 213 212 214 214 211 211 210 209 210 210 208 209 209 210 211 208 202 202 203 204 204 204 204 201 198 200 201 195 198 207 209 204 198 199 206 208 210 214 215 214 215 215 214 212 218 209 198 197 197 194 194 196 197 197 191 184 181 176
312 318 330 334 335 339 340 340 341 341 342 339 338 345 343 336 336 3 38 45 30 15 264 212 214 214 214 216 217 215 212 208 210 213 212 210 209 208 209 209 208 208 208 209 211 207 202 202 204 204 202 202 203 203 200 198 199 196 199 206 206 202 203 204 205 206 211 211 206 210 211 207 207 207 204 196 195 201 201 196 196 198 200 199 191 187 187 181
309 318 332 335 337 342 341 341 341 341 342 339 334 342 347 348 19 59 86 85 61 50 59 116 183 213 215 217 218 214 210 205 205 208 211 210 208 207 208 208 206 206 206 208 209 207 203 203 205 205 202 200 200 201 200 199 197 194 196 204 203 204 210 206 200 209 212 202 200 206 203 202 207 206 201 195 197 207 205 200 198 197 199 198 192 191 192 186
307 318 332 336 339 342 342 341 341 343 345 341 337 344 348 353 60 77 83 90 83 68 57 69 103 133 183 197 206 204 202 202 199 198 206 208 207 206 206 208 206 204 205 206 206 205 203 203 205 206 205 201 196 196 198 198 196 190 191 200 204 206 212 206 197 209 209 194 195 201 196 195 201 203 202 202 204 204 200 201 201 199 199 198 198 197 194 189
306 315 331 337 338 341 343 341 343 348 345 342 352 355 352 20 65 59 60 81 78 67 67 71 66 96 162 165 175 186 193 199 193 185 193 203 205 204 203 206 207 206 206 206 205 203 201 201 204 207 208 204 196 192 195 196 191 184 185 196 206 208 209 207 198 201 205 197 189 192 191 188 186 186 194 205 209 203 193 195 201 204 204 203 206 206 196 190
306 310 326 338 339 341 345 344 346 349 345 352 6 355 348 55 65 30 56 81 51 31 78 90 70 91 162 155 159 173 185 196 193 184 185 192 199 201 199 202 206 208 208 206 205 205 201 199 200 205 207 204 197 193 195 194 186 180 182 191 205 208 205 209 208 204 207 202 191 190 190 186 178 173 183 195 196 197 193 190 198 205 205 205 209 208 199 195
308 306 318 334 339 342 346 347 349 348 347 359 10 351 1 51 59 33 95 89 57 43 61 67 73 90 134 141 147 161 178 192 191 184 184 185 190 193 194 198 202 206 210 207 205 205 204 202 199 201 205 202 198 195 194 192 185 181 181 187 199 206 206 209 213 210 208 199 191 193 191 186 179 172 180 185 178 186 194 193 194 192 193 197 203 205 201 201
311 307 313 327 335 340 346 349 348 348 352 1 5 6 15 3 333 27 109 99 100 93 77 70 74 95 127 137 141 147 157 173 175 174 179 182 184 187 190 194 198 202 206 206 204 202 202 204 199 195 201 201 197 196 193 189 187 184 182 185 193 202 208 210 210 211 209 198 193 196 195 190 182 178 187 186 178 181 190 195 200 191 184 187 198 205 204 204
316 314 312 322 331 337 345 350 348 348 358 10 7 357 341 303 287 80 86 106 158 138 111 98 94 114 131 135 132 137 142 141 143 162 178 180 180 185 187 187 192 197 195 193 197 197 197 201 197 192 197 199 196 197 194 189 189 187 184 187 191 198 209 213 214 214 210 204 201 202 206 202 193 191 195 191 186 187 192 197 199 202 201 194 199 209 207 204
321 321 316 321 329 336 346 350 347 350 359 7 360 339 322 319 311 331 6 353 256 165 131 115 115 131 143 144 127 128 143 137 125 143 172 174 175 182 184 181 187 191 183 179 184 187 187 192 196 195 195 198 197 197 197 192 190 190 189 191 193 198 207 212 217 218 210 209 210 207 211 208 203 202 201 199 196 192 196 201 199 205 210 207 204 204 202 200
324 325 321 324 330 339 348 347 343 349 1 2 354 337 324 332 347 342 329 8 28 176 152 130 131 141 155 160 141 139 155 143 132 144 163 172 175 178 179 178 184 184 176 174 178 180 182 184 193 196 193 195 197 196 198 196 190 188 190 194 195 198 205 208 214 217 211 212 215 212 213 214 210 208 208 210 207 201 204 204 202 208 209 208 204 196 195 198
324 326 325 328 334 343 348 345 339 350 6 4 344 337 344 349 11 1 328 50 70 213 173 153 154 153 158 162 153 156 167 154 148 155 158 162 166 175 182 181 182 179 175 175 175 178 182 181 188 195 193 195 196 192 196 197 191 188 190 193 194 197 203 205 210 214 210 210 218 216 215 219 218 214 214 219 219 218 218 210 207 210 207 205 201 195 196 200
322 322 327 332 338 346 347 342 338 351 8 0 330 340 14 13 13 16 11 50 127 177 163 167 175 165 160 161 158 170 182 167 162 164 159 154 155 168 183 185 179 177 179 178 176 178 180 181 190 196 195 198 197 191 193 196 193 190 191 192 194 197 201 202 207 213 210 211 219 220 217 219 219 218 218 217 215 217 215 210 211 210 208 207 201 199 201 205
319 319 325 332 339 345 340 334 342 356 5 1 351 16 34 26 18 24 23 14 156 170 167 181 189 171 162 167 168 178 186 174 169 171 167 164 167 170 178 184 180 178 182 182 180 179 178 184 195 196 193 195 195 192 195 198 195 191 190 190 191 195 199 200 203 208 210 213 218 220 220 220 219 220 221 218 214 212 206 203 209 211 211 210 206 207 209 211
315 317 320 325 334 335 327 332 353 2 2 9 20 31 32 30 26 24 21 20 80 172 178 187 193 182 169 176 179 181 188 180 170 169 170 175 182 176 174 182 183 181 182 184 182 180 180 189 197 197 196 194 190 190 196 201 199 192 190 190 190 192 195 196 199 203 208 214 217 218 219 220 221 224 225 223 223 222 213 200 199 207 213 215 211 212 216 220
308 311 314 320 322 320 322 340 359 6 11 18 27 35 31 30 26 19 19 31 52 167 187 183 192 192 183 186 189 188 192 182 169 170 176 179 183 179 175 182 186 183 182 183 182 179 183 193 197 196 197 194 188 186 192 200 200 193 191 192 193 195 195 193 195 199 201 209 215 217 219 221 223 226 227 227 230 235 232 214 202 204 210 214 214 214 219 227
303 308 313 314 304 306 330 354 358 1 15 24 31 36 33 29 25 18 15 20 18 347 227 203 203 196 189 192 194 194 194 183 176 180 187 186 185 181 179 183 187 188 184 182 180 177 181 191 196 190 187 187 184 182 186 194 196 191 190 192 193 198 200 194 193 197 200 205 211 213 218 222 223 225 228 231 234 239 237 224 213 211 209 209 213 216 220 228
297 303 299 296 298 309 341 1 360 358 14 28 32 32 27 24 27 22 14 8 6 2 311 198 190 175 182 188 194 198 195 185 182 182 188 195 198 187 180 184 188 189 187 184 181 179 180 187 194 190 187 185 181 180 183 188 193 192 192 192 191 194 199 195 194 199 202 205 208 209 213 219 221 222 226 231 236 235 226 220 219 220 218 215 215 218 222 229
290 297 295 295 306 310 334 357 360 2 15 26 30 29 28 28 29 23 11 6 10 17 26 185 180 143 175 189 197 201 194 188 189 189 188 198 205 197 184 185 190 190 187 185 185 186 186 189 194 193 191 187 181 180 184 187 191 193 193 194 192 192 196 197 198 201 203 205 208 207 210 215 218 219 220 225 230 226 221 225 230 230 228 224 222 222 225 228
289 303 308 301 299 299 320 352 360 7 14 20 21 20 28 35 31 21 10 4 10 21 19 312 196 178 173 190 195 198 196 196 202 208 208 200 202 200 191 189 193 191 188 187 189 191 192 192 195 195 192 188 184 185 187 189 192 193 193 195 195 194 196 199 202 203 203 206 208 208 210 213 217 218 218 222 224 219 217 222 225 225 225 224 223 225 226 225
285 305 307 300 301 306 317 345 360 9 14 15 18 19 18 32 37 26 17 7 357 357 355 353 342 256 17 162 183 195 199 201 209 215 219 214 203 199 197 197 196 192 189 189 190 192 193 194 196 198 193 187 188 189 190 192 194 194 194 196 197 197 197 201 205 206 205 207 208 209 210 213 216 217 219 223 225 220 214 213 216 221 223 221 219 222 225 223
271 293 301 304 315 308 301 323 353 5 9 8 18 32 23 24 37 33 29 26 4 350 350 352 3 29 55 142 171 190 198 203 211 214 218 224 213 203 202 202 199 195 191 191 192 194 195 195 197 201 197 188 188 192 193 194 194 195 197 198 198 198 198 202 207 208 207 209 210 211 212 214 218 218 218 222 224 220 215 215 222 229 229 225 222 219 221 221
258 276 294 306 317 303 299 315 338 348 355 359 12 27 26 23 31 28 31 40 26 11 15 11 353 21 53 132 161 181 194 202 208 207 209 219 213 208 206 203 201 199 194 193 196 198 198 197 196 199 200 193 190 194 196 197 196 197 200 200 199 198 198 202 207 209 209 210 212 214 213 215 220 221 218 219 221 220 218 220 227 231 231 231 229 226 225 223
247 258 282 301 304 291 298 311 311 319 336 349 5 19 22 22 30 27 23 36 37 27 34 42 29 324 329 150 154 180 192 196 202 204 203 199 203 208 211 206 200 198 195 195 197 199 200 200 193 188 191 193 193 195 199 200 200 200 202 203 200 198 198 201 206 208 209 210 213 214 215 215 219 222 221 219 221 223 222 223 229 233 234 234 233 232 230 228
242 250 271 293 285 274 274 278 281 290 308 329 353 15 22 20 22 24 18 23 33 33 38 48 46 24 11 194 191 176 186 194 200 204 202 197 198 203 209 210 202 195 194 196 199 201 202 201 192 180 180 185 189 193 198 201 203 204 205 204 200 198 198 201 205 208 208 210 213 214 215 216 217 219 223 222 221 223 224 225 227 230 232 233 233 233 231 228
236 244 261 280 280 277 270 265 277 286 286 301 332 1 20 25 23 23 21 18 25 34 34 41 47 40 35 72 200 193 181 191 203 208 207 203 202 201 207 212 208 200 197 197 200 203 205 205 195 183 180 183 186 190 195 200 205 206 207 207 203 200 201 203 206 208 208 209 213 214 215 216 217 218 222 226 224 222 222 224 225 228 234 238 236 232 231 229
231 235 246 265 276 277 275 275 286 285 275 278 301 338 6 20 23 23 26 24 23 32 33 29 38 43 40 38 36 207 186 179 197 209 206 195 190 192 199 205 208 207 203 200 201 204 207 210 203 191 188 189 188 190 193 200 206 208 209 210 208 205 205 207 210 211 209 209 212 215 216 217 218 220 225 232 231 226 224 225 227 231 236 240 240 236 231 228
228 232 239 253 270 274 276 278 274 268 268 269 274 306 347 4 16 20 24 27 26 34 42 35 33 41 43 43 40 54 185 192 196 197 195 192 191 192 195 199 205 210 208 204 205 206 208 212 211 201 194 193 192 193 194 198 205 205 205 208 209 211 213 213 214 216 215 213 214 216 217 218 218 220 224 228 224 221 222 224 227 229 231 234 237 236 233 227